Flag for Germany Weather past 2 weeks in Viersen, North Rhine-Westphalia, Germany

Now
57 °F

Passing clouds.


Feels Like: 55 °F
Forecast: 51 / 60 °F
Wind: 8 mph from West

Location: Monchengladbach Airport

Current Time: Sep 4, 2015 at 11:46:55 PM

Latest Report: Sep 4, 2015 at 8:20 PM


Visibility: N/A

Pressure: 29.92 "Hg

Humidity: 77%

Dew point: 50 °F

Location of ViersenLocation

Historic Weather in Viersen — Graph

°F

Viersen temperature yesterday

Maximum temperature yesterday: 66 °F (at 4:20 PM)
Minimum temperature yesterday: 50 °F (at 7:50 AM)
Average temperature yesterday: 59 °F

Past Weeks' High & Low Weather Summary

 TemperatureHumidityPressure
High90 °F (Aug 30, 3:20 PM)100% (Aug 21, 7:50 AM)30.24 "Hg (Aug 21, 7:50 AM)
Low50 °F (Sep 2, 7:20 AM)33% (Aug 31, 4:50 PM)29.50 "Hg (Aug 24, 4:20 PM)
Average68 °F69%29.94 "Hg
* Reported Aug 20 8:20 PM — Sep 4 8:20 PM, Viersen, Weather by CustomWeather, © 2015

Note: Actual official high and low records may vary slightly from our data, if they occured in-between our weather recording intervals... More about our weather records

Advertising

Viersen weather history for previous 24 hours

 ConditionsComfort  
Time TempWeatherWind HumidityBarometerVisibility
8:20 PM
Fri, Sep 4
57 °FPassing clouds.8 mph77%29.92 "HgN/A
7:50 PM59 °FClear.8 mph72%29.92 "Hg10 mi
6:50 PM59 °FClear.9 mph63%29.92 "Hg10 mi
6:20 PM61 °FClear.14 mph59%29.92 "Hg10 mi
5:50 PM61 °FPassing clouds.10 mph59%29.92 "HgN/A
5:20 PM61 °FPassing clouds.8 mph63%29.95 "HgN/A
4:50 PM61 °FPassing clouds.8 mph68%29.95 "HgN/A
4:20 PM59 °FPassing clouds.8 mph72%29.95 "HgN/A
3:50 PM59 °FPassing clouds.8 mph68%29.95 "HgN/A
3:20 PM61 °FPassing clouds.13 mph63%29.95 "HgN/A
2:50 PM61 °FPassing clouds.18 mph63%29.95 "HgN/A
2:20 PM61 °FPassing clouds.13 mph63%29.95 "HgN/A
1:50 PM63 °FPassing clouds.10 mph64%29.95 "HgN/A
1:20 PM61 °FPartly cloudy.12 mph63%29.98 "HgN/A
12:50 PM59 °FPassing clouds.8 mph68%29.98 "HgN/A
12:20 PM59 °FPartly sunny.10 mph68%29.98 "HgN/A
11:50 AM59 °FPartly sunny.8 mph72%29.98 "HgN/A
11:20 AM59 °FBroken clouds.9 mph72%29.98 "HgN/A
10:50 AM59 °FScattered clouds.8 mph72%29.98 "HgN/A
10:20 AM57 °FScattered clouds.8 mph77%29.95 "HgN/A
9:50 AM57 °FPassing clouds.7 mph77%29.95 "HgN/A
9:20 AM55 °FPassing clouds.6 mph88%29.95 "HgN/A
8:50 AM52 °FPassing clouds.6 mph94%29.95 "HgN/A
8:20 AM54 °FPassing clouds.6 mph88%29.95 "HgN/A
7:50 AM52 °FPassing clouds.6 mph94%29.95 "HgN/A
Weather by CustomWeather, © 2015

See weather overviewHow to use our weather pages